Regional Weather Roundup
Issued by NWS

Home | Current Version | Previous Version | Graphics & Text | Print | Product List | Glossary On
Versions: 1 2 3 4 5 6 7 8 9 10 11 12 13 14 15 16 17 18 19 20 21 22 23 24 25 26 27 28 29 30 31 32 33 34 35 36 37 38 39 40 41 42 43 44 45 46 47 48 49 50
000
ASUS43 KLSX 250407
RWRMO

WEATHER SUMMARY FOR MISSOURI
NATIONAL WEATHER SERVICE SPRINGFIELD MO
1000 PM CST SAT JAN 24 2015

NOTE: "FAIR" INDICATES FEW OR NO CLOUDS BELOW 12,000 FEET WITH NO
       SIGNIFICANT WEATHER AND/OR OBSTRUCTIONS TO VISIBILITY.
       CURRENT SKY AND/OR WEATHER CONDITIONS ARE NOT AVAILABLE FOR
       CHILLICOTHE AND FARMINGTON.

MOZ001>031-035>038-043-044-053-054-250500-
...NORTHERN AND WESTERN MISSOURI...

CITY           SKY/WX    TMP DP  RH WIND       PRES   REMARKS
KANSAS CTY INT LGT RAIN  47  41  80 W15G23    29.71R
KANSAS C DTWN  LGT RAIN  50  41  71 W14G20    29.72R
LEE`S SUMMIT   LGT RAIN  50  39  66 W16G28    29.72R
ST JOSEPH      LGT RAIN  44  39  82 SW8       29.69F
CHILLICOTHE      N/A     49  30  48 SW5       29.66F
KIRKSVILLE     CLOUDY    46  31  55 SW8       29.64F

$$
MOZ066>068-077>081-088>096-101>105-250500-
...SOUTHWEST MISSOURI...

CITY           SKY/WX    TMP DP  RH WIND       PRES   REMARKS
SPRINGFIELD    CLOUDY    50  32  50 SW16      29.79F
JOPLIN         CLOUDY    50  31  48 SW17      29.81F

$$
MOZ032>034-039>042-045>050-055>058-069>072-250500-
...CENTRAL MISSOURI...

CITY           SKY/WX    TMP DP  RH WIND       PRES   REMARKS
COLUMBIA       MOCLDY    46  33  60 SW9       29.69F
JEFFERSON CITY CLOUDY    52  33  48 SW8       29.71F
ROLLA          CLOUDY    47  31  53 S13       29.72F
SEDALIA        CLOUDY    51  32  48 SW15      29.70F
WHITEMAN AFB   CLOUDY    51  33  50 SW20      29.69F
WARRENSBURG    CLOUDY    50  32  50 SW17G24   29.70S
OSAGE BEACH    CLOUDY    52  30  43 SW13      29.73F

$$
MOZ051-052-059>065-250500-
...EAST CENTRAL MISSOURI...

CITY           SKY/WX    TMP DP  RH WIND       PRES   REMARKS
ST LOUIS INTL  CLOUDY    52  31  44 SW14      29.72F
SPIRIT OF STL  CLOUDY    52  31  44 SW9       29.70F
ST CHARLES     CLOUDY    38  32  79 E5        29.70F

$$
MOZ072>076-082>087-097>100-106>115-250500-
...SOUTH CENTRAL AND SOUTHEAST MISSOURI...

CITY           SKY/WX    TMP DP  RH WIND       PRES   REMARKS
CAPE GIRARDEAU MOCLDY    39  32  76 CALM      29.82F
FARMINGTON     CLOUDY    48  28  46 MISG      29.80F
POPLAR BLUFF   PTCLDY    40  32  73 SW6       29.83F
WEST PLAINS    CLOUDY    48  30  49 SW12      29.83F

$$


USA.gov is the U.S. government's official web portal to all federal, state and local government web resources and services.